Regional Weather Roundup
Issued by NWS

Home | Current Version | Previous Version | Graphics & Text | Print | Product List | Glossary On
Versions: 1 2 3 4 5 6 7 8 9 10 11 12 13 14 15 16 17 18 19 20 21 22 23 24 25 26 27 28 29 30 31 32 33 34 35 36 37 38 39 40 41 42 43 44 45 46 47 48 49 50
000
ASUS43 KDMX 070407
RWRIA

WEATHER ROUNDUP FOR IOWA
NATIONAL WEATHER SERVICE DES MOINES IA
1100 PM CDT WED MAY 06 2015

NOTE: "FAIR" INDICATES FEW OR NO CLOUDS BELOW 12,000 FEET WITH NO
SIGNIFICANT WEATHER AND/OR OBSTRUCTIONS TO VISIBILITY.

* - THESE STATIONS ARE NOT NWS STATIONS...THUS NOT UNDER NWS
QUALITY CONTROL.  THEY ALSO DO NOT REPORT WEATHER SUCH
AS PRECIPITATION OR FOG.

IAZ001>003-012>014-020>022-031>034-043>046-070500-
   NORTHWEST IOWA

CITY           SKY/WX    TMP DP  RH WIND       PRES   REMARKS
CARROLL *      CLOUDY    66  59  77 SE16      29.81F
CHEROKEE *     CLOUDY    66  59  77 SE18G28   29.75F
DENISON *      CLOUDY    66  63  88 SE18G25   29.75F
LE MARS *      LGT RAIN  63  59  88 S23G30    29.73S
ORANGE CITY *  RAIN      63  57  82 S24G36    29.75R
SHELDON *      CLOUDY    64 N/A N/A SE17G26   29.74F HAZE
SIOUX CITY     LGT RAIN  62  57  83 SE14      29.70F
SPENCER        MOCLDY    65  59  81 SE21G31   29.77F
STORM LAKE *   CLOUDY    64  59  82 SE23      29.78F
$$

IAZ055>058-069>071-079>083-090>094-070500-
   SOUTHWEST IOWA

CITY           SKY/WX    TMP DP  RH WIND       PRES   REMARKS
ATLANTIC *     MOCLDY    68  59  73 SE17G28   29.80S
AUDUBON *      PTCLDY    66  59  77 SE14G20   29.81F
CLARINDA *     CLEAR     68  61  77 SE14G24   29.81F
COUNCIL BLFS * CLOUDY    68  66  94 SE24G31   29.75F
CRESTON *      MOCLDY    66  61  82 SE17      29.86S
HARLAN  *      MOCLDY    68  64  88 SE22G30   29.80F
LAMONI         MOCLDY    69  59  70 SE13      29.88S
RED OAK *      MOCLDY    70  59  68 SE16G31   29.77F
SHENANDOAH *   CLEAR     70  61  73 SE22G32   29.75F
$$

IAZ047>049-059>061-072>074-084-070500-
   CENTRAL IOWA

CITY           SKY/WX    TMP DP  RH WIND       PRES   REMARKS
AMES           MOCLDY    66  57  72 SE12      29.87F
ANKENY *       MOCLDY    68  59  73 SE10      29.88S
CHARITON *     PTCLDY    66  59  77 SE12G18   29.89F
DES MOINES     MOCLDY    69  58  67 SE15      29.87F
GRINNELL*      PTCLDY    64  61  88 E9        29.91F
KNOXVILLE *    PTCLDY    68  59  73 SE13      29.88F
MARSHALLTOWN   PTCLDY    66  60  81 SE13      29.90F
PELLA *        PTCLDY    66  61  82 SE10      29.91F
PERRY *          N/A     66  59  77 SE17      29.83F
$$

IAZ004>006-015-016-023>025-035-036-070500-
   NORTH CENTRAL IOWA

CITY           SKY/WX    TMP DP  RH WIND       PRES   REMARKS
ALGONA *       MOCLDY    66  59  77 SE17G24   29.84F
CLARION *      MOCLDY    66  61  82 SE15      29.86F
ESTHERVILLE    CLOUDY    64  58  80 SE20      29.80S
FORT DODGE *   MOCLDY    66  57  72 SE12G17   29.85F
MASON CITY     PTCLDY    63  60  90 SE16      29.90S
FOREST CITY *  CLEAR     61  55  82 SE13      29.88R
IOWA FALLS *     N/A     64  57  77 SE9       29.90F
$$

IAZ007>011-017>019-026>030-037>042-050>054-066-070500-
   NORTHEAST IOWA

CITY           SKY/WX    TMP DP  RH WIND       PRES   REMARKS
CEDAR RAPIDS   CLOUDY    63  61  93 SE7       29.95F
CHARLES CITY * CLOUDY    64  63  94 SE14      29.92F
CLINTON *      PTCLDY    64  61  88 E8        30.02F
DECORAH *      MOCLDY    64  59  82 S9        29.95S
DUBUQUE        CLOUDY    65  58  78 SE7       30.00S
MONTICELLO *   CLOUDY    66  63  88 SE8       29.98S
OELWEIN *      CLOUDY    63  59  88 SE12      29.96S
WATERLOO       MOCLDY    66  59  78 SE12      29.92S
$$

IAZ064-065-067-068-078-070500-
   EAST CENTRAL IOWA

CITY           SKY/WX    TMP DP  RH WIND       PRES   REMARKS
DAVENPORT      MOCLDY    67  59  75 SE8       30.00S
IOWA CITY      CLOUDY    65  61  87 SE6       29.98S
MT. PLEASANT * MOCLDY    66  61  82 SE7       29.97S
MUSCATINE *    PTCLDY    68  63  83 CALM      29.98S
QUAD CITIES    PTCLDY    63  59  87 CALM      29.99S
$$

IAZ062-063-075>077-085>089-095>099-070500-
   SOUTHEAST IOWA

CITY           SKY/WX    TMP DP  RH WIND       PRES   REMARKS
BURLINGTON     CLOUDY    69  60  73 SE7       29.97F
FAIRFIELD *    MOCLDY    64  61  88 SE7       29.95S
FORT MADISON * PTCLDY    70  61  73 SE6       29.98S
KEOKUK *       PTCLDY    72  59  64 SE9       29.97R
OSKALOOSA *      N/A     64  61  88 SE15      29.92F
CENTERVILLE *  CLEAR     64  61  88 SE9       29.93S
OTTUMWA        PTCLDY    65  63  93 SE14      29.92F
WASHINGTON *   MOCLDY    64 N/A N/A SE9       29.96S
$$

ABBREVIATIONS USED IN REMARKS
   TC - TEMPERATURES IN CELSIUS
  WCI - WIND CHILL INDEX
   HX - HEAT INDEX
  VSB - VISIBILITY
$$




USA.gov is the U.S. government's official web portal to all federal, state and local government web resources and services.